[[{"header":{"parameterUnit":"m.s-1","parameterCategory":1,"la1":30.2992,"la2":30.254,"lo1":-89.0895,"lo2":-89.0443,"dy":0.0025,"dx":0.0025,"nx":19,"ny":19,"refTime":"2026-03-11T09:00:00:Z","depth":0,"parameterNumber":2,"parameterNumberName":"U-component_of_WINDS"},"data":[0,0,0,-1.68,-1.6803,-1.6917,-1.6918,-1.7072,-1.7074,0,0,0,0,0,0,0,0,0,0,0,-1.6772,-1.6773,-1.68,-1.6803,-1.6917,-1.6918,-1.7072,-1.7074,0,0,0,0,0,0,0,0,0,0,0,-1.6771,-1.6772,-1.6774,-1.6804,-1.6917,-1.6918,-1.7072,-1.6983,0,0,0,0,0,0,0,0,0,0,-1.687,-1.6848,-1.6772,-1.6774,-1.6804,-1.6917,-1.6918,-1.6978,-1.6988,-1.7024,0,-1.7057,0,-1.7068,-1.7085,-1.7085,0,0,0,-1.68,-1.684,-1.6866,-1.6774,-1.6806,-1.6917,-1.6865,-1.6984,-1.6995,-1.7037,-1.7059,-1.7065,-1.707,-1.7086,-1.7086,-1.7304,-1.7305,0,0,-1.6793,-1.6795,-1.6859,-1.6874,-1.6856,-1.6861,-1.6868,-1.699,-1.7015,-1.706,-1.7068,-1.7073,-1.7087,-1.7088,-1.7303,-1.7304,0,0,0,-1.6778,-1.6791,-1.6814,-1.6868,-1.6888,-1.6865,-1.6873,-1.7009,-1.7016,-1.707,-1.7075,-1.7088,-1.709,-1.7302,-1.7304,-1.7364,0,0,0,-1.6774,-1.6782,-1.6811,-1.6813,-1.6886,-1.695,-1.6889,-1.7008,-1.7022,-1.7074,-1.7088,-1.7091,-1.73,-1.7303,-1.736,-1.7393,0,0,0,-1.6763,-1.678,-1.6798,-1.6813,-1.6862,-1.6948,-1.6962,-1.7011,-1.7025,-1.7085,-1.7092,-1.73,-1.7302,-1.7356,-1.7387,-1.7452,0,0,0,-1.6751,-1.6851,-1.6799,-1.6912,-1.6861,-1.6984,-1.6961,-1.7052,-1.7111,-1.7089,-1.7301,-1.7303,-1.7354,-1.7383,-1.7447,-1.7508,-1.7532,0,0,-1.6878,-1.6866,-1.6933,-1.689,-1.7022,-1.6966,-1.7107,-1.716,-1.7164,-1.7257,-1.7262,-1.7361,-1.7386,-1.7451,-1.7668,-1.7688,0,0,0,-1.6974,-1.7022,-1.7056,-1.7112,-1.7153,-1.7192,-1.7223,-1.7242,-1.7321,-1.7212,-1.7401,-1.7416,-1.7454,-1.7483,-1.75,-1.7532,-1.7316,-1.7316,-1.7316,-1.7157,-1.7156,-1.7266,-1.7279,-1.7333,-1.7362,-1.7407,-1.7437,-1.7421,-1.7466,-1.7494,-1.7626,-1.766,-1.7673,-1.7707,-1.7524,-1.7525,-1.7525,-1.7525,-1.7344,-1.7413,-1.7387,-1.7485,-1.7483,-1.7565,-1.7596,-1.7582,-1.7658,-1.7605,-1.7638,-1.7582,-1.7694,-1.7724,-1.753,-1.7529,-1.7528,-1.7528,-1.7528,-1.7466,-1.7499,-1.7519,-1.7599,-1.766,-1.7669,-1.7743,-1.7738,-1.7735,-1.7767,-1.7797,-1.7796,-1.7796,-1.7781,-1.7782,-1.7782,-1.7783,-1.7783,-1.7783,-1.7585,-1.7606,-1.7669,-1.7721,-1.7755,-1.78,-1.7829,-1.7863,-1.79,-1.7891,-1.7891,-1.7871,-1.7705,-1.7664,-1.7791,-1.7789,-1.7788,-1.7788,-1.7787,-1.7779,-1.7734,-1.7831,-1.7866,-1.7925,-1.7986,-1.7978,-1.8047,-1.8075,-1.8111,-1.8083,-1.796,-1.7949,-1.7935,-1.7902,-1.8082,-1.8082,-1.8082,-1.8082,-1.7883,-1.7875,-1.7974,-1.8029,-1.8082,-1.8085,-1.8195,-1.8217,-1.8234,-1.8251,-1.8223,-1.8177,-1.8164,-1.816,-1.8142,-1.8111,-1.834,-1.8341,-1.8341,-1.8002,-1.7999,-1.8095,-1.8109,-1.8155,-1.8194,-1.8297,-1.8362,-1.8371,-1.8351,-1.8264,-1.8253,-1.8179,-1.8155,-1.8136,-1.8107,-1.805,0,0]},{"header":{"parameterUnit":"m.s-1","parameterCategory":1,"la1":30.2992,"la2":30.254,"lo1":-89.0895,"lo2":-89.0443,"dy":0.0025,"dx":0.0025,"nx":19,"ny":19,"refTime":"2026-03-11T09:00:00:Z","depth":0,"parameterNumber":3,"parameterNumberName":"V-component_of_WINDS"},"data":[0,0,0,-7.9038,-7.9043,-7.9294,-7.9295,-7.9626,-7.9629,0,0,0,0,0,0,0,0,0,0,0,-7.8973,-7.8976,-7.9037,-7.9044,-7.9294,-7.9295,-7.9625,-7.9629,0,0,0,0,0,0,0,0,0,0,0,-7.8972,-7.8975,-7.8979,-7.9045,-7.9294,-7.9295,-7.9624,-7.9431,0,0,0,0,0,0,0,0,0,0,-7.9186,-7.9136,-7.8975,-7.8979,-7.9047,-7.9294,-7.9295,-7.9421,-7.9443,-7.9518,0,-7.959,0,-7.9615,-7.9652,-7.9653,0,0,0,-7.9036,-7.9119,-7.9178,-7.8979,-7.9049,-7.9293,-7.9179,-7.9433,-7.9458,-7.9546,-7.9594,-7.9606,-7.962,-7.9654,-7.9656,-8.0121,-8.0123,0,0,-7.9022,-7.9023,-7.9161,-7.9194,-7.916,-7.9171,-7.9187,-7.9448,-7.9499,-7.9595,-7.9614,-7.9626,-7.9656,-7.9659,-8.0118,-8.0122,0,0,0,-7.8988,-7.9014,-7.9066,-7.9181,-7.9225,-7.9178,-7.9197,-7.9487,-7.9504,-7.9617,-7.963,-7.9658,-7.9662,-8.0116,-8.012,-8.0248,0,0,0,-7.8979,-7.8994,-7.906,-7.9063,-7.9221,-7.936,-7.923,-7.9486,-7.9516,-7.9628,-7.9658,-7.9666,-8.0113,-8.0118,-8.0239,-8.0309,0,0,0,-7.8954,-7.899,-7.903,-7.9063,-7.9171,-7.9356,-7.9388,-7.9492,-7.9524,-7.9653,-7.9667,-8.0111,-8.0117,-8.023,-8.0295,-8.0432,0,0,0,-7.8926,-7.914,-7.9032,-7.9276,-7.9169,-7.9434,-7.9386,-7.9583,-7.9709,-7.966,-8.0113,-8.0119,-8.0228,-8.0286,-8.0423,-8.0548,-8.0601,0,0,-7.9196,-7.9172,-7.9315,-7.9227,-7.9512,-7.9396,-7.9699,-7.9812,-7.9822,-8.002,-8.0031,-8.0242,-8.0294,-8.043,-8.0893,-8.0934,0,0,0,-7.9401,-7.9504,-7.9579,-7.9701,-7.9795,-7.9879,-7.9947,-7.9988,-8.0157,-7.9925,-8.0328,-8.0359,-8.0439,-8.0498,-8.0534,-8.0602,-8.0147,-8.0146,-8.0146,-7.9785,-7.9788,-8.0024,-8.0058,-8.0176,-8.0243,-8.0338,-8.0405,-8.0372,-8.0467,-8.0526,-8.0807,-8.0877,-8.0904,-8.0975,-8.0592,-8.0593,-8.0593,-8.0593,-8.0181,-8.0327,-8.0279,-8.0492,-8.0492,-8.0669,-8.0741,-8.0712,-8.0875,-8.0763,-8.0833,-8.0711,-8.0949,-8.1012,-8.0603,-8.0601,-8.06,-8.0599,-8.0598,-8.0433,-8.0503,-8.0552,-8.0728,-8.0863,-8.0887,-8.1047,-8.1041,-8.1036,-8.1106,-8.1167,-8.1165,-8.1162,-8.1135,-8.1136,-8.1137,-8.1138,-8.1139,-8.114,-8.0675,-8.0726,-8.0863,-8.0981,-8.1058,-8.1158,-8.1227,-8.1301,-8.1382,-8.1365,-8.1365,-8.1322,-8.0973,-8.0885,-8.1155,-8.1152,-8.115,-8.1149,-8.1148,-8.1077,-8.0985,-8.1197,-8.1275,-8.1411,-8.1545,-8.1535,-8.1688,-8.1748,-8.1826,-8.1768,-8.1511,-8.1485,-8.1457,-8.1385,-8.1767,-8.1767,-8.1767,-8.1767,-8.129,-8.1277,-8.1492,-8.1617,-8.1737,-8.175,-8.1986,-8.2041,-8.2082,-8.2119,-8.2063,-8.1966,-8.1937,-8.1929,-8.189,-8.1822,-8.2308,-8.2309,-8.2309,-8.1537,-8.1535,-8.174,-8.1782,-8.1888,-8.1978,-8.22,-8.2342,-8.2369,-8.2331,-8.2148,-8.2125,-8.1969,-8.1918,-8.1876,-8.1817,-8.1692,0,0]}]]